Date String (YYYY-MM-DD hh:mm:ss) UTC,Instrument flags,absolute air pressure of the measurement (hPa),sample flow rate (lpm),inlet stack bypass flow (lpm),air temperature of the measurement (°C),ambient temperature measured by the external sensor (°C),aerosol sample conditioner tube jacket temperature (°C),OPC LED temperature (°C),internal box temperature (°C),relative humidity of the measurement (%),span deviation,mass concentration of particles derived from Lorenz-Mie calculation of OPC scattering (μg/m³),mass concentration of particles derived from Lorenz-Mie calculation of OPC scattering (μg/m³),mass concentration of particles derived from Lorenz-Mie calculation of OPC scattering (μg/m³)
DateTimeUTC,F1_M11,P_M11,Q1_M11,Q2_M11,T1_M11,T2_M11,T3_M11,T4_M11,T5_M11,U1_M11,ZSPAN_M11,X0_M11,X2_M11,X1_M11
2023-08-29 06:00:00,SystemResetWarning,0838.4,4.99,000.00,028.4,027.3,000.0,037.0,030.1,30.9,0000.0,0004.10,0002.59,0001.97
2023-08-29 06:01:00,SystemResetWarning,0838.3,4.99,000.00,028.4,027.3,000.0,037.0,030.1,30.8,0000.0,0004.05,0002.61,0001.97
2023-08-29 06:02:00,SystemResetWarning,0838.3,5.00,000.00,028.5,027.3,000.0,037.0,030.1,30.5,0000.0,0004.49,0002.68,0001.99
2023-08-29 06:03:00,SystemResetWarning,0838.3,5.00,000.00,028.5,027.4,000.0,037.0,030.1,30.4,0000.0,0004.97,0002.70,0001.99
2023-08-29 06:04:00,SystemResetWarning,0838.3,5.00,000.00,028.5,027.4,000.0,037.0,030.2,30.4,0000.0,0004.85,0002.64,0001.97
2023-08-29 06:05:00,SystemResetWarning,0838.3,5.01,000.00,028.5,027.4,000.0,037.1,030.2,30.5,0000.0,0004.95,0002.64,0001.96
2023-08-29 06:06:00,SystemResetWarning,0838.4,5.00,000.00,028.6,027.4,000.0,037.1,030.2,30.5,0000.0,0004.92,0002.62,0001.96
2023-08-29 06:07:00,SystemResetWarning,0838.4,5.00,000.00,028.6,027.5,000.0,037.1,030.2,30.8,0000.0,0004.76,0002.59,0001.95
2023-08-29 06:08:00,SystemResetWarning,0838.4,4.99,000.00,028.6,027.5,000.0,037.1,030.3,30.9,0000.0,0004.79,0002.59,0001.95
2023-08-29 06:09:00,SystemResetWarning,0838.4,4.99,000.00,028.6,027.5,000.0,037.1,030.3,30.7,0000.0,0004.83,0002.62,0001.99
2023-08-29 06:10:00,SystemResetWarning,0838.4,4.99,000.00,028.6,027.1,000.0,037.1,030.2,30.5,0000.0,0004.95,0002.67,0002.02
2023-08-29 06:11:00,SystemResetWarning,0838.3,5.00,000.00,028.6,025.3,000.0,037.0,029.9,30.5,0000.0,0004.87,0002.66,0002.03
2023-08-29 06:12:00,SystemResetWarning,0838.3,5.00,000.00,028.5,024.3,000.0,036.9,029.6,31.0,0000.0,0004.69,0002.62,0002.07
2023-08-29 06:13:00,SystemResetWarning,0838.3,5.01,000.00,028.3,024.2,000.0,036.9,029.4,31.0,0000.0,0004.24,0002.54,0002.06
2023-08-29 06:14:00,SystemResetWarning,0838.3,5.00,000.00,028.2,024.6,000.0,036.9,029.4,30.9,0000.0,0004.39,0002.50,0002.07
2023-08-29 06:15:00,SystemResetWarning,0838.3,4.99,000.00,028.2,025.0,000.0,036.9,029.5,30.8,0000.0,0004.71,0002.51,0002.11
2023-08-29 06:16:00,SystemResetWarning,0838.3,5.01,000.00,028.2,025.4,000.0,036.9,029.6,30.7,0000.0,0004.92,0002.56,0002.17
2023-08-29 06:17:00,SystemResetWarning,0838.3,5.00,000.00,028.2,025.7,000.0,036.9,029.6,30.7,0000.0,0005.07,0002.66,0002.24
2023-08-29 06:18:00,SystemResetWarning,0838.3,5.00,000.00,028.2,026.0,000.0,036.9,029.7,30.7,0000.0,0005.18,0002.73,0002.29
2023-08-29 06:19:00,SystemResetWarning,0838.3,5.00,000.00,028.2,026.2,000.0,036.9,029.7,30.6,0000.0,0005.15,0002.74,0002.31
2023-08-29 06:20:00,SystemResetWarning,0838.3,5.00,000.00,028.2,026.4,000.0,036.9,029.8,30.4,0000.0,0005.04,0002.73,0002.33
2023-08-29 06:21:00,SystemResetWarning,0838.3,5.01,000.00,028.2,026.6,000.0,036.9,029.8,30.3,0000.0,0004.96,0002.73,0002.36
2023-08-29 06:22:00,SystemResetWarning,0838.3,4.99,000.00,028.2,026.7,000.0,036.9,029.8,30.1,0000.0,0005.09,0002.80,0002.40
2023-08-29 06:23:00,SystemResetWarning,0838.3,4.99,000.00,028.3,026.8,000.0,036.9,029.9,30.0,0000.0,0005.20,0002.85,0002.42
2023-08-29 06:24:00,SystemResetWarning,0838.3,4.99,000.00,028.3,026.9,000.0,036.9,029.9,29.9,0000.0,0005.35,0002.92,0002.46
2023-08-29 06:25:00,SystemResetWarning,0838.4,5.00,000.00,028.3,027.0,000.0,036.9,029.9,29.9,0000.0,0004.76,0002.97,0002.48
2023-08-29 06:26:00,SystemResetWarning,0838.4,5.00,000.00,028.3,027.1,000.0,036.9,030.0,29.8,0000.0,0004.60,0003.06,0002.50
2023-08-29 06:27:00,SystemResetWarning,0838.4,5.01,000.00,028.4,027.1,000.0,036.9,030.0,29.6,0000.0,0004.35,0003.05,0002.50
2023-08-29 06:28:00,SystemResetWarning,0838.5,5.01,000.00,028.4,027.2,000.0,036.9,030.0,29.5,0000.0,0004.27,0002.97,0002.46
2023-08-29 06:29:00,SystemResetWarning,0838.4,5.01,000.00,028.4,027.2,000.0,037.0,030.1,29.4,0000.0,0004.19,0002.94,0002.45
2023-08-29 06:30:00,SystemResetWarning,0838.4,5.00,000.00,028.4,027.3,000.0,037.0,030.1,29.2,0000.0,0004.20,0002.96,0002.45
2023-08-29 06:31:00,SystemResetWarning,0838.4,4.99,000.00,028.5,027.3,000.0,037.0,030.1,29.1,0000.0,0004.24,0002.97,0002.45
2023-08-29 06:32:00,SystemResetWarning,0838.4,4.99,000.00,028.5,027.3,000.0,037.0,030.1,29.0,0000.0,0004.38,0002.99,0002.46
2023-08-29 06:33:00,SystemResetWarning,0838.4,4.99,000.00,028.5,027.4,000.0,037.0,030.2,28.9,0000.0,0004.32,0002.97,0002.46
2023-08-29 06:34:00,SystemResetWarning,0838.4,4.99,000.00,028.5,027.4,000.0,037.0,030.2,28.8,0000.0,0004.33,0003.00,0002.46
2023-08-29 06:35:00,SystemResetWarning,0838.4,5.01,000.00,028.6,027.4,000.0,037.1,030.2,28.7,0000.0,0004.32,0002.99,0002.47
2023-08-29 06:36:00,SystemResetWarning,0838.4,5.00,000.00,028.6,027.5,000.0,037.1,030.2,28.9,0000.0,0004.30,0003.05,0002.50
2023-08-29 06:37:00,SystemResetWarning,0838.4,5.00,000.00,028.6,027.5,000.0,037.1,030.3,28.9,0000.0,0004.29,0003.04,0002.52
2023-08-29 06:38:00,SystemResetWarning,0838.4,5.01,000.00,028.6,027.5,000.0,037.1,030.3,28.8,0000.0,0004.34,0003.05,0002.53
2023-08-29 06:39:00,SystemResetWarning,0838.4,4.99,000.00,028.7,027.5,000.0,037.2,030.3,28.8,0000.0,0004.27,0003.09,0002.58
2023-08-29 06:40:00,SystemResetWarning,0838.5,4.99,000.00,028.7,027.5,000.0,037.2,030.3,28.6,0000.0,0004.35,0003.13,0002.62
2023-08-29 06:41:00,SystemResetWarning,0838.4,5.00,000.00,028.7,026.1,000.0,037.1,030.1,28.7,0000.0,0004.31,0003.12,0002.65
2023-08-29 06:42:00,SystemResetWarning,0838.4,5.00,000.00,028.6,024.5,000.0,036.9,029.8,29.0,0000.0,0004.38,0003.14,0002.68
2023-08-29 06:43:00,SystemResetWarning,0838.4,5.02,000.00,028.4,024.1,000.0,036.9,029.6,29.5,0000.0,0004.37,0003.14,0002.69
2023-08-29 06:44:00,SystemResetWarning,0838.4,5.00,000.00,028.3,024.4,000.0,036.9,029.4,29.5,0000.0,0005.27,0003.14,0002.69
2023-08-29 06:45:00,SystemResetWarning,0838.4,5.00,000.00,028.3,024.8,000.0,036.9,029.5,29.8,0000.0,0005.25,0003.14,0002.71
2023-08-29 06:46:00,SystemResetWarning,0838.4,5.00,000.00,028.2,025.3,000.0,036.9,029.6,30.3,0000.0,0005.71,0003.17,0002.74
2023-08-29 06:47:00,SystemResetWarning,0838.4,5.00,000.00,028.2,025.6,000.0,036.9,029.7,30.1,0000.0,0005.63,0003.15,0002.76
2023-08-29 06:48:00,SystemResetWarning,0838.4,5.00,000.00,028.2,026.0,000.0,036.9,029.8,29.8,0000.0,0005.72,0003.14,0002.76
2023-08-29 06:49:00,SystemResetWarning,0838.5,5.00,000.00,028.3,026.2,000.0,036.9,029.8,29.4,0000.0,0005.84,0003.18,0002.79
2023-08-29 06:50:00,SystemResetWarning,0838.5,5.00,000.00,028.3,026.5,000.0,036.9,029.9,29.5,0000.0,0006.04,0003.23,0002.81
2023-08-29 06:51:00,SystemResetWarning,0838.5,5.00,000.00,028.3,026.7,000.0,036.9,029.9,29.3,0000.0,0006.07,0003.24,0002.82
2023-08-29 06:52:00,SystemResetWarning,0838.5,5.00,000.00,028.3,026.8,000.0,036.9,030.0,29.2,0000.0,0006.05,0003.25,0002.83
2023-08-29 06:53:00,SystemResetWarning,0838.5,5.00,000.00,028.4,026.9,000.0,036.9,030.0,29.2,0000.0,0006.14,0003.27,0002.85
2023-08-29 06:54:00,SystemResetWarning,0838.4,5.00,000.00,028.4,027.0,000.0,036.9,030.0,29.3,0000.0,0006.61,0003.30,0002.85
2023-08-29 06:55:00,SystemResetWarning,0838.4,5.01,000.00,028.4,027.1,000.0,037.0,030.0,29.4,0000.0,0006.53,0003.33,0002.87
2023-08-29 06:56:00,SystemResetWarning,0838.4,5.00,000.00,028.4,027.2,000.0,037.0,030.1,29.3,0000.0,0006.23,0003.33,0002.88
2023-08-29 06:57:00,SystemResetWarning,0838.4,5.00,000.00,028.5,027.3,000.0,037.0,030.1,29.2,0000.0,0006.01,0003.36,0002.88
2023-08-29 06:58:00,SystemResetWarning,0838.5,4.99,000.00,028.5,027.3,000.0,037.0,030.1,29.1,0000.0,0005.98,0003.37,0002.87
2023-08-29 06:59:00,SystemResetWarning,0838.5,5.00,000.00,028.5,027.4,000.0,037.0,030.2,29.1,0000.0,0005.93,0003.40,0002.88
